Regional Weather Roundup
Issued by NWS Upton, NY

Current Version | Previous Version | Text Only | Print | Product List | Glossary On
Versions: 1 2 3 4 5 6 7 8 9 10 11 12 13 14 15 16 17 18 19 20 21 22 23 24 25 26 27 28 29 30 31 32 33 34 35 36 37 38 39 40 41 42 43 44 45 46 47 48 49 50
000
ASUS41 KOKX 312105
RWROKX

REGIONAL WEATHER ROUNDUP
NATIONAL WEATHER SERVICE NEW YORK NY
500 PM EDT SUN AUG 31 2014

NOTE: "FAIR" INDICATES FEW OR NO CLOUDS BELOW 12,000 FEET WITH NO
SIGNIFICANT WEATHER AND/OR OBSTRUCTIONS TO VISIBILITY.

NYZ071-072-176-178-NJZ106-104-312200-
NEW YORK CITY METRO AREA


CITY           SKY/WX    TMP DP  RH WIND       PRES   REMARKS
CENTRAL PARK   LGT RAIN  74  71  91 CALM      30.03R VSB 1
LAGUARDIA APRT TSTM      75  72  88 NW15G39   29.98R VSB 1/4
KENNEDY INTL   CLOUDY    79  72  79 S21G29    29.97F THUNDER
NEWARK/LIBERTY TSTM      77  72  84 NW9       29.98R
BRNX BOT. GARD   N/A     72  68  88 CALM      30.02R
TETERBORO      TSTM      75  70  83 S5        29.97F
$$

NYZ177-179-078>081-312200-
LONG ISLAND NEW YORK

CITY           SKY/WX    TMP DP  RH WIND       PRES   REMARKS
FARMINGDALE    PTSUNNY   78  72  81 S16G24    29.99S
ISLIP          PTSUNNY   78  71  79 S14       29.97F
SHIRLEY        PTSUNNY   77  72  84 S14       30.00S
WESTHAMPTON    CLOUDY    77  71  82 S13G20    30.02S
MONTAUK POINT    N/A     76  72  87 S9        30.02F
$$

NYZ052-065-067-312200-
HUDSON VALLEY

CITY           SKY/WX    TMP DP  RH WIND       PRES   REMARKS
WHITE PLAINS   LGT RAIN  77  74  90 CALM      29.98R FOG
NEWBURGH       NOT AVBL
MONTGOMERY     LGT RAIN  80  69  69 NW31G43   30.01R SQUALL  VSB 3/4
POUGHKEEPSIE   CLOUDY    84  71  65 S5        29.94S
ALBANY         CLOUDY    75  71  87 S8        29.95S
$$

NJZ001-105-106-008-010-013-015-019>022-104-312200-
NEW JERSEY

CITY           SKY/WX    TMP DP  RH WIND       PRES   REMARKS
NEWARK/LIBERTY TSTM      77  72  84 NW9       29.98R
TETERBORO      TSTM      75  70  83 S5        29.97F
CALDWELL       PTSUNNY   76  72  87 W3        29.98F
MORRISTOWN     CLOUDY    77  73  88 SW3       29.99F
SOMERVILLE     CLOUDY    79  75  87 CALM      29.97S
LINDEN         LGT RAIN  82  76  82 NW9       29.99R HX  90
SUSSEX         CLOUDY    82  74  76 CALM      29.98S
ANDOVER          N/A     84  71  65 VRB6      29.99S
TRENTON        LGT RAIN  78  73  84 NW9       29.98S
MILLVILLE      MOSUNNY  N/A N/A N/A VRB7      29.99F
ATLANTIC CITY  MOSUNNY   84  72  67 S14       30.01F
WRIGHTSTOWN    CLOUDY    84  74  71 SW6       29.96F HX  91
TOMS RIVER     PTSUNNY   84  73  70 S9        29.99S HX  91
BELMAR         PTSUNNY   84  70  61 SW6       29.99S
$$

PAZ047>061-062-071-312200-
EASTERN PENNSYLVANIA

CITY           SKY/WX    TMP DP  RH WIND       PRES   REMARKS
PHILADELPHIA   CLOUDY    87  72  60 SW12      29.98F HX  93
ALLENTOWN      CLOUDY    82  71  69 S7        29.98F
SCRANTON       CLOUDY    75  70  84 SW7       30.01F
$$

CTZ002-004>006-009-010-012-RIZ004-006-007-MAZ004-011-015-312200-
SOUTHERN NEW ENGLAND
 IN CT

CITY           SKY/WX    TMP DP  RH WIND       PRES   REMARKS
BRADLEY INTL   CLOUDY    84  69  60 SW7       29.96S
HARTFORD       MOSUNNY   85  69  58 SW5       29.96S
DANBURY        LGT RAIN  81  72  74 CALM      29.98F
WTRBRY/OXFORD  PTSUNNY   81  72  74 S5        30.01F
BRIDGEPORT     PTSUNNY   79  73  82 SE6       29.97S
MERIDEN        MOSUNNY   83  72  69 S8        29.97S
NEW HAVEN      MOSUNNY   81  72  74 E6        29.98S
CHESTER        FAIR      81  73  78 S8        30.01S
GROTON         MOSUNNY   75  72  90 S10       30.00R
WILLIMANTIC    CLOUDY    82  72  71 S6        29.99S

 IN RI

CITY           SKY/WX    TMP DP  RH WIND       PRES   REMARKS
PROVIDENCE     PTSUNNY   83  72  69 S9        29.99F
BLOCK ISLAND   CLOUDY    73  70  88 SW13      30.02F
WESTERLY       CLOUDY    77  72  84 SW10G18   30.02R

 IN MA

CITY           SKY/WX    TMP DP  RH WIND       PRES   REMARKS
BOSTON         CLOUDY    85  70  60 SW16      29.95F
WORCESTER      PTSUNNY   78  69  73 SW9       30.00F
WESTFIELD      CLOUDY    80  71  74 S7        29.96S
PROVINCETOWN   MOSUNNY   75  70  83 SW17G23   30.00R
NANTUCKET      SUNNY     72  68  87 S10       30.04F
$$

ANZ330-335-338-340-345-350-353-355-312200-
COASTAL MARINE OBSERVATIONS


STATION/POSITION TIME  SKY/WX   TEMP    WIND        PRES    VSBY  WAVE
                                AIR SEA DIR/SP/G                  HT/PER
                 (UTC)          (F)     (DEG/KT/KT) (MB)    (MI)  (FT/S)
NY HARB ENTRANCE NOT AVBL
4S FIRE IS       NOT AVBL
23SW MTP         2100                                 N/A           3/ 4
HUDSON CANYON    2100            75 74  200/ 16/ 19 1017.4          4/ 5
EXECUTION ROCKS  2100            82 74  190/ 12/ 19   N/A
WESTERN LI SOUND 2100            81     170/ 12/ 14   N/A           1
CENTRAL LI SOUND 2000            78 76  200/ 10/ 12   N/A           1
EASTERN LI SOUND 2000            77 70  180/  4/  8   N/A
ROBBINS REEF     2100            78     310/ 19/ 24   N/A
$$


>>>>>>>>>>>>>>>>>>>>>>>>>>>> KEY <<<<<<<<<<<<<<<<<<<<<<<<<<<
>                                                          <
>     SKY/WX - SKY CONDITION/PRESENT WEATHER               <
>     TMP    - TEMPERATURE IN FAHRENHEIT                   <
>     DP     - DEWPOINT IN FAHRENHEIT                      <
>     RH     - RELATIVE HUMIDITY IN PERCENT                <
>     WIND   - DIRECTION AND SPEED IN MPH                  <
>     PRES   - MEAN SEA LEVEL PRESSURE IN INCHES OF HG     <
>     WCI    - WIND CHILL INDEX                            <
>     VSB    - VISIBILITY IN MILES                         <
>     HX     - HEAT INDEX                                  <
>     TC     - TEMPERATURE IN CELSIUS                      <
>     VRB    - VARIABLE WIND DIRECTION                     <
>                                                          <
>>>>>>>>>>>>>>>>>>>>>>>>>>>> KEY <<<<<<<<<<<<<<<<<<<<<<<<<<<




USA.gov is the U.S. government's official web portal to all federal, state and local government web resources and services.